Miscellaneous Local Product
Issued by NWS Hastings, NE

Home | Current Version | Previous Version | Graphics & Text | Print | Product List | Glossary On
Versions: 1 2 3 4 5 6 7 8 9 10 11 12 13 14 15 16 17 18 19 20 21 22 23 24 25 26 27 28 29 30 31 32 33 34 35 36 37 38 39 40 41 42 43 44 45 46 47 48 49 50
000
AXUS43 KGID 210402
MISGRI

GID CWA HOURLY WEATHER ROUNDUP
NATIONAL WEATHER SERVICE HASTINGS NE
1000 PM CST SAT DEC 20 2014

NOTE: "FAIR" INDICATES FEW OR NO CLOUDS BELOW 12,000 FEET WITH NO
SIGNIFICANT WEATHER AND/OR OBSTRUCTIONS TO VISIBILITY.

...SOUTH CENTRAL NEBRASKA...

CITY           SKY/WX    TMP DP  RH WIND       PRES   REMARKS
GRAND ISLAND   MOCLDY    27  25  92 S3        29.96F FOG
HASTINGS       PTCLDY    32  31  96 S6        29.94F FOG     WCI  26
KEARNEY        CLEAR     32  28  86 SW8       29.94S WCI  25
ORD            FOG       28  27  96 CALM      29.93S VSB 1/4
YORK           FOG       32  32 100 CALM      29.98F VSB<1/4
AURORA         FOG       30  30 100 SE6       29.96F VSB 1/2 WCI  24
LEXINGTON      CLEAR     32  27  83 CALM      29.93S
HOLDREGE       CLEAR     35  31  86 SW5       29.93F WCI  31
HEBRON         MOCLDY    37  36  94 S6        30.00S FOG     WCI  32

...NEBRASKA PANHANDLE...

CITY           SKY/WX    TMP DP  RH WIND       PRES   REMARKS
CHADRON        CLOUDY    28  23  81 W5        29.87F WCI  23
ALLIANCE       MOCLDY    20  19  96 S6        29.89F WCI  12
SCOTTSBLUFF    CLOUDY    27  22  81 CALM      29.90F
SIDNEY         CLOUDY    32  24  72 W5        29.92F WCI  27

...WESTERN AND NORTH CENTRAL NEBRASKA...

CITY           SKY/WX    TMP DP  RH WIND       PRES   REMARKS
VALENTINE      CLOUDY    32  27  81 W6        29.89F WCI  26
AINSWORTH      MOCLDY    28  25  87 W8        29.89F WCI  20
ONEILL         FOG       32  32 100 S8        29.92F VSB 3/4 WCI  24
BROKEN BOW     CLEAR     29  26  89 CALM      29.92S
IMPERIAL       PTCLDY    31  25  78 W5        29.93F WCI  26
NORTH PLATTE   CLEAR     22  20  92 NW7       29.93F WCI  13
MCCOOK         PTCLDY    30  26  85 W5        29.93F WCI  25

...EASTERN NEBRASKA...

CITY           SKY/WX    TMP DP  RH WIND       PRES   REMARKS
NORFOLK        FOG       32  31  96 S7        29.97S VSB 1/2 WCI  26
SO SIOUX CITY  CLOUDY    33  31  92 S10       30.03S FOG     WCI  25
TEKAMAH        CLOUDY    34  32  92 SE8       30.03F FOG     WCI  27
COLUMBUS       CLOUDY    34  28  80 SE6       29.99F WCI  29
ALBION         FOG       32  31  94 S7        29.96F VSB 1/2 WCI  26
OMAHA EPPLEY   CLOUDY    34  33  96 SE9       30.04F FOG     WCI  27
OFFUTT AFB     FOG       34  33  97 SE8       30.03F VSB 1/2 WCI  27
MILLARD        CLOUDY    35  33  94 SE5       30.03F FOG     WCI  31
LINCOLN        FOG       37  35  92 SE9       30.02F VSB 1/2 WCI  30
NEBRASKA CITY  FOG       34  34 100 SE6       30.04F VSB 1/4 WCI  29
BEATRICE       CLOUDY    36  36  99 S6        30.02F FOG     WCI  31
FALLS CITY     PTCLDY    33  31  92 SE6       30.06F FOG     WCI  28

...NORTHERN KANSAS...

CITY           SKY/WX    TMP DP  RH WIND       PRES   REMARKS
GOODLAND       CLOUDY    34  29  82 S10       29.93F WCI  26
HILL CITY      PTCLDY    39  33  79 SW10      29.97F WCI  32
NORTON         CLEAR     34  27  75 SW8       29.94F WCI  27
PHILLIPSBURG   CLEAR     41  36  81 S6        29.97F
SMITH CENTER   CLEAR     36  34  93 S10       29.98F WCI  28
BELOIT         CLEAR     37  36  93 SE6       30.01S WCI  33
HAYS           MOCLDY    34  27  75 CALM      30.00S
RUSSELL        MOCLDY    38  36  92 S17       29.99S WCI  28
CONCORDIA      MOCLDY    37  36  96 S15       30.01S WCI  28
SALINA         PTCLDY    40  36  86 S10       30.03F WCI  33
TOPEKA         PTCLDY   N/A N/A N/A S7        30.11S



USA.gov is the U.S. government's official web portal to all federal, state and local government web resources and services.